This is the latest recevied weather packets stored in our database for station/object KB7KFC-3. If no packets are shown the sender has not sent any weather packets the latest 10 day(s).
| Time | Temp. | Humidity | Pressure | Rain* | Wind** | Luminosity | Snow |
|---|---|---|---|---|---|---|---|
| 1777536604 | 20.56° C | 29% | 1012 hPa | 0 mm | - | - | - |
| 1777536425 | 20.56° C | 28% | 1012.1 hPa | 0 mm | - | - | - |
| 1777536243 | 20.56° C | 26% | 1011.9 hPa | 0 mm | - | - | - |
| 1777536063 | 20.56° C | 28% | 1011.9 hPa | 0 mm | - | - | - |
| 1777535884 | 20.56° C | 30% | 1011.9 hPa | 0 mm | - | - | - |
| 1777535704 | 20.56° C | 30% | 1011.9 hPa | 0 mm | - | - | - |
| 1777535524 | 20.56° C | 27% | 1012 hPa | 0 mm | - | - | - |
| 1777535345 | 21.11° C | 24% | 1012 hPa | 0 mm | - | - | - |
| 1777535164 | 21.11° C | 24% | 1011.9 hPa | 0 mm | - | - | - |
| 1777534984 | 21.11° C | 24% | 1011.9 hPa | 0 mm | - | - | - |
| 1777534804 | 21.11° C | 23% | 1012 hPa | 0 mm | - | - | - |
| 1777534624 | 21.11° C | 24% | 1012.3 hPa | 0 mm | - | - | - |
| 1777534444 | 21.11° C | 24% | 1012.5 hPa | 0 mm | - | - | - |
| 1777534264 | 21.11° C | 26% | 1012.3 hPa | 0 mm | - | - | - |
| 1777534084 | 21.11° C | 26% | 1012.4 hPa | 0 mm | - | - | - |
| 1777533904 | 21.11° C | 23% | 1012.6 hPa | 0 mm | - | - | - |
| 1777533724 | 21.11° C | 23% | 1012.6 hPa | 0 mm | - | - | - |
| 1777533544 | 21.11° C | 23% | 1012.4 hPa | 0 mm | - | - | - |
| 1777533363 | 21.11° C | 24% | 1012.5 hPa | 0 mm | - | - | - |
| 1777533183 | 21.11° C | 25% | 1012.5 hPa | 0 mm | - | - | - |
| 1777533003 | 21.11° C | 26% | 1012.4 hPa | 0 mm | - | - | - |
* Rain latest hour (hover to see other rain measurements)
** Current wind speed in m/s (hover to see current wind gust speed)